Regional Weather Roundup
Issued by NWS Charleston, SC

Current Version | Previous Version | Graphics & Text | Print | Product List | Glossary On
Versions: 1 2 3 4 5 6 7 8 9 10 11 12 13 14 15 16 17 18 19 20 21 22 23 24 25 26 27 28 29 30 31 32 33 34 35 36 37 38 39 40 41 42 43 44 45 46 47 48 49 50
155
ASUS42 KCHS 122228
RWRCHS

REGIONAL WEATHER ROUNDUP
NATIONAL WEATHER SERVICE CHARLESTON SC
500 PM EST FRI FEB 12 2016

NOTE: "FAIR" INDICATES FEW OR NO CLOUDS BELOW 12,000 FEET WITH NO
SIGNIFICANT WEATHER AND/OR OBSTRUCTIONS TO VISIBILITY.

NOT ALL STATIONS ARE QUALITY CONTROLLED BY THE NATIONAL
WEATHER SERVICE. USE DATA WITH CAUTION...ESPECIALLY
DEWPOINT OBSERVATIONS.

SCZ027-030-031-034>040-042>050-122300-
...SOUTHEAST SOUTH CAROLINA...

CITY           SKY/WX    TMP DP  RH WIND       PRES   REMARKS
N CHARLESTON   MOSUNNY   53  47  79 N7        30.02S
WATERFRONT PRK   N/A     50  49  97 CALM      29.87S
MOUNT PLEASANT CLOUDY    52  48  87 CALM      30.03S
JOHNS ISLAND   MOCLDY    55  54  94 CALM      30.02S
PINOPOLIS        N/A     48  39  71 NW6       29.95R
MONCKS CORNER  CLOUDY    45  32  61 N5        30.03S
SUMMERVILLE    NOT AVBL
BEAUFORT MCAS  SUNNY     62  52  69 NW7       30.02S
BEAUFORT ARPT  FAIR      61  52  72 W5        30.01S
HILTON HEAD IS PTSUNNY   66  55  68 N3        30.03R
WALTERBORO     PTCLDY    55  50  82 W8        30.03S
ALLENDALE      FAIR      57  48  72 CALM      30.03R

...SOUTHERN MIDLANDS AND PEE DEE...

CITY           SKY/WX    TMP DP  RH WIND       PRES   REMARKS
GEORGETOWN     CLOUDY    46  34  61 N5        30.04S
KINGSTREE      FAIR      45  27  49 N3        30.05R
ORANGEBURG     SUNNY     54  35  48 VRB3      30.03R
BARNWELL       FAIR      61  43  51 W6        30.04R
AIKEN          FAIR      54  34  47 W10       30.07R
MANNING        NOT AVBL
COLUMBIA       SUNNY     52  30  43 W3        30.03S
SUMTER         SUNNY     46  27  46 CALM      30.02R
FLORENCE       CLOUDY    39  25  57 CALM      30.05S
MYRTLE BEACH   CLOUDY    45  27  49 NW9       30.05S
N MYRTLE BEACH CLOUDY    42  28  57 NW5       30.02F

$$

GAZ063-065-086>088-099>101-113>116-118-119-134>141-150-122300-
...SOUTHEAST GEORGIA...

CITY           SKY/WX    TMP DP  RH WIND       PRES   REMARKS
SAVANNAH ARPT  MOSUNNY   67  51  56 W13G21    30.02R
HUNTER AAF     MOSUNNY   68  53  59 W15       30.00R
FORT STEWART   MOSUNNY   68  51  55 W14G25    30.01R
STATESBORO     SUNNY     67  45  44 W10G16    30.03R
SYLVANIA       CLEAR     63  53  68 W7        30.03S
CLAXTON        FAIR      66  55  65 SW12G17   30.03S

...CSRA...CENTRAL AND FAR SOUTHEAST GEORGIA...

CITY           SKY/WX    TMP DP  RH WIND       PRES   REMARKS
THOMSON        SUNNY     59  37  44 W8        30.08R
AUGUSTA-BUSH   SUNNY     58  38  47 N8        30.03R
AUGUSTA-DANIEL SUNNY     57  36  45 NW7       30.03S
SWAINSBORO     FAIR      63  50  63 W6        30.04R
VIDALIA        SUNNY     64  50  59 W10G17    30.04S
EASTMAN        FAIR      67  50  53 W9G22     30.07R
HAZLEHURST     FAIR      69  52  55 W5        30.05R
ALMA           MOSUNNY   70  52  52 W10       30.04S
WAYCROSS       MOSUNNY   75  55  51 W12G22    30.04S
JESUP          FAIR      72  55  56 W13G21    30.04R
BAXLEY         FAIR      70  52  52 W10G20    30.05R
BRUNSWICK      MOSUNNY   72  54  53 W8        30.04R
SAINT SIMONS   CLOUDY    71  52  50 W9        30.02S

$$

SCZ027-028-034-036>038-045-046-048>050-GAZ119-141-122300-
...LAKE AND SUPPLEMENTAL COASTAL OBSERVATIONS...

STATION/POSITION TIME  TEMP    WIND        PRES    WAVE   SWELL
                       AIR SEA DIR/SP/G            HT/PER HT/PER/DIR
                 (UTC) (F)     (DEG/KT/KT) (MB)    (FT/S) (FT/S/D)
WINYAH BAY       2100   47     330/  5     1015.0
LAKE MURRAY      2100   46     200/  7/  7 1016.3F
ACE BASIN NERRS  2100   60     310/  3     1016.0S
FORT PULASKI     2200   64 50  260/  9/ 11 1016.7R
SAPELO ISLAND    2200   69     260/ 10     1016.0S

$$

ANZ835-935-AMZ111-154-330-350-352-354-370-450-454-472-122300-
...C-MAN AND BUOY OBSERVATIONS...

STATION/POSITION TIME  TEMP    WIND        PRES    WAVE   SWELL
                       AIR SEA DIR/SP/G            HT/PER HT/PER/DIR
                 (UTC) (F)     (DEG/KT/KT) (MB)    (FT/S) (FT/S/D)
BUOY 41004       2150   56 67  310/ 14/ 17 1016.2R   5/ 6   2/11
BUOY 41008       2150   60 54  280/  4/  4 1017.2R   3/ 6   3/160/ 6
FOLLY BEACH CMAN 2200   49      60/  4/  5 1016.8R
CAPERS NEARSHORE 2108   48      70/  4/  6 1016.7R
FRIPP NEARSHORE  2100   54     340/  4/  6 1016.4R


STATION/POSITION TIME  TEMP    WIND        PRES    WAVE   SWELL
                       AIR SEA DIR/SP/G            HT/PER HT/PER/DIR
                 (UTC) (F)     (DEG/KT/KT) (MB)    (FT/S) (FT/S/D)
5E ST. MARYS GA  2121      56                N/A     3/ 4
FRYING PAN BUOY  2200   45 53  350/ 16/ 19 1016.5R
BUOY 41025       2150   46 59   20/ 21/ 25 1013.8F   6/ 6
CAPE LOOKOUT NC  NOT AVBL
BUOY 41002       2150   67 68  240/ 35/ 43   N/A    14/ 8
BUOY 41010       2120   69 72              1021.1F
ST AUGUSTINE FL  2200   72 59  240/ 15/ 20 1019.4R


$$




USA.gov is the U.S. government's official web portal to all federal, state and local government web resources and services.